Time,TemperatureF,DewpointF,PressureIn,WindDirection,WindDirectionDegrees,WindSpeedMPH,WindSpeedGustMPH,Humidity,HourlyPrecipIn,Conditions,Clouds,dailyrainin,SoftwareType,DateUTC
2013-01-31 00:00:00,34.0,29.7,29.45,WSW,239,8.0,19.0,84,0.01,,-RA,0.00,VWS V14.01,2013-01-31 05:00:00,
2013-01-31 00:01:00,34.0,29.7,29.45,West,275,16.0,19.0,84,0.01,,OVC100,0.00,VWS V14.01,2013-01-31 05:01:00,
2013-01-31 00:03:00,34.0,29.4,29.45,WSW,239,6.0,19.0,83,0.01,,OVC100,0.00,VWS V14.01,2013-01-31 05:03:00,
2013-01-31 00:08:00,34.0,28.8,29.45,West,274,12.0,18.0,81,0.01,,OVC100,0.00,VWS V14.01,2013-01-31 05:08:00,
2013-01-31 00:13:00,34.0,28.8,29.46,WNW,295,11.0,17.0,81,0.01,,OVC100,0.00,VWS V14.01,2013-01-31 05:13:00,
2013-01-31 00:15:00,34.0,28.5,29.46,SW,215,4.0,17.0,80,0.01,,,0.00,VWS V14.01,2013-01-31 05:15:00,
2013-01-31 00:18:00,34.1,28.6,29.46,WNW,285,1.0,20.0,80,0.00,,OVC037,0.00,VWS V14.01,2013-01-31 05:18:00,
2013-01-31 00:23:00,34.1,28.3,29.46,West,263,10.0,21.0,79,0.00,,OVC037,0.00,VWS V14.01,2013-01-31 05:23:00,
2013-01-31 00:28:00,34.0,27.9,29.47,West,277,7.0,19.0,78,0.00,,OVC037,0.00,VWS V14.01,2013-01-31 05:28:00,
2013-01-31 00:30:00,34.1,27.7,29.48,WNW,285,3.0,19.0,77,0.00,,,0.00,VWS V14.01,2013-01-31 05:30:00,
2013-01-31 00:33:00,34.1,27.7,29.48,WSW,247,5.0,18.0,77,0.00,,OVC034,0.00,VWS V14.01,2013-01-31 05:33:00,
2013-01-31 00:38:00,34.1,27.3,29.48,WSW,248,2.0,22.0,76,0.00,,OVC034,0.00,VWS V14.01,2013-01-31 05:38:00,
2013-01-31 00:43:00,34.1,27.3,29.48,West,277,3.0,22.0,76,0.00,,OVC034,0.00,VWS V14.01,2013-01-31 05:43:00,
2013-01-31 00:45:00,34.1,27.3,29.48,SW,227,10.0,19.0,76,0.00,,,0.00,VWS V14.01,2013-01-31 05:45:00,
2013-01-31 00:48:00,34.0,26.9,29.48,West,260,14.0,22.0,75,0.00,,OVC034,0.00,VWS V14.01,2013-01-31 05:48:00,
2013-01-31 00:53:00,34.0,26.9,29.49,WSW,243,2.0,22.0,75,0.00,,OVC034,0.00,VWS V14.01,2013-01-31 05:53:00,
2013-01-31 00:58:00,33.8,26.4,29.49,SW,230,8.0,20.0,74,0.00,,OVC034,0.00,VWS V14.01,2013-01-31 05:58:00,
2013-01-31 01:00:00,33.8,26.4,29.50,WSW,237,6.0,20.0,74,0.00,,,0.00,VWS V14.01,2013-01-31 06:00:00,
2013-01-31 01:03:00,33.8,26.1,29.50,West,271,7.0,21.0,73,0.00,,OVC045,0.00,VWS V14.01,2013-01-31 06:03:00,
2013-01-31 01:08:00,33.8,26.4,29.50,West,271,4.0,21.0,74,0.00,,OVC045,0.00,VWS V14.01,2013-01-31 06:08:00,
2013-01-31 01:13:00,33.7,26.0,29.50,SSW,213,6.0,17.0,73,0.00,,OVC045,0.00,VWS V14.01,2013-01-31 06:13:00,
2013-01-31 01:15:00,33.7,26.0,29.51,SSW,206,5.0,17.0,73,0.00,,,0.00,VWS V14.01,2013-01-31 06:15:00,
2013-01-31 01:18:00,33.7,26.3,29.51,West,272,7.0,12.0,74,0.00,,OVC045,0.00,VWS V14.01,2013-01-31 06:18:00,
2013-01-31 01:23:00,33.7,26.3,29.52,West,265,2.0,13.0,74,0.00,,OVC045,0.00,VWS V14.01,2013-01-31 06:23:00,
2013-01-31 01:28:00,33.7,26.0,29.52,SSW,198,7.0,16.0,73,0.00,,OVC045,0.00,VWS V14.01,2013-01-31 06:28:00,
2013-01-31 01:30:00,33.7,26.0,29.52,WNW,296,6.0,16.0,73,0.00,,,0.00,VWS V14.01,2013-01-31 06:30:00,
2013-01-31 01:33:00,33.5,26.1,29.52,WSW,237,3.0,18.0,74,0.00,,OVC045,0.00,VWS V14.01,2013-01-31 06:33:00,
2013-01-31 01:38:00,33.5,26.1,29.53,SW,223,10.0,18.0,74,0.00,,OVC045,0.00,VWS V14.01,2013-01-31 06:38:00,
2013-01-31 01:43:00,33.4,26.0,29.53,SW,230,1.0,22.0,74,0.00,,OVC045,0.00,VWS V14.01,2013-01-31 06:43:00,
2013-01-31 01:45:00,33.4,26.0,29.53,WSW,253,7.0,22.0,74,0.00,,,0.00,VWS V14.01,2013-01-31 06:45:00,
2013-01-31 01:49:00,33.2,25.8,29.53,West,278,14.0,24.0,74,0.00,,OVC045,0.00,VWS V14.01,2013-01-31 06:49:00,
2013-01-31 01:54:00,33.1,26.0,29.55,West,278,10.0,30.0,75,0.00,,OVC045,0.00,VWS V14.01,2013-01-31 06:54:00,
2013-01-31 01:59:00,32.7,26.0,29.55,West,278,16.0,30.0,76,0.00,,OVC045,0.00,VWS V14.01,2013-01-31 06:59:00,
2013-01-31 02:00:00,32.7,26.0,29.55,West,278,18.0,30.0,76,0.00,,,0.00,VWS V14.01,2013-01-31 07:00:00,
2013-01-31 02:04:00,32.4,25.7,29.55,West,278,5.0,26.0,76,0.00,,OVC029,0.00,VWS V14.01,2013-01-31 07:04:00,
2013-01-31 02:09:00,32.2,25.8,29.56,West,278,7.0,26.0,77,0.00,,OVC029,0.00,VWS V14.01,2013-01-31 07:09:00,
2013-01-31 02:14:00,32.1,25.7,29.56,West,278,5.0,20.0,77,0.00,,OVC029,0.00,VWS V14.01,2013-01-31 07:14:00,
2013-01-31 02:15:00,32.1,26.0,29.56,West,278,16.0,20.0,78,0.00,,,0.00,VWS V14.01,2013-01-31 07:15:00,
2013-01-31 02:19:00,31.9,25.8,29.56,West,278,2.0,27.0,78,0.00,,OVC029,0.00,VWS V14.01,2013-01-31 07:19:00,
2013-01-31 02:24:00,31.8,25.4,29.57,West,278,12.0,24.0,77,0.00,,OVC029,0.00,VWS V14.01,2013-01-31 07:24:00,
2013-01-31 02:29:00,31.6,24.9,29.58,West,278,7.0,19.0,76,0.00,,OVC029,0.00,VWS V14.01,2013-01-31 07:29:00,
2013-01-31 02:30:00,31.6,24.9,29.58,West,278,8.0,20.0,76,0.00,,,0.00,VWS V14.01,2013-01-31 07:30:00,
2013-01-31 02:34:00,31.6,24.6,29.58,West,278,2.0,20.0,75,0.00,,OVC029,0.00,VWS V14.01,2013-01-31 07:34:00,
2013-01-31 02:39:00,31.6,24.6,29.58,West,278,6.0,18.0,75,0.00,,OVC029,0.00,VWS V14.01,2013-01-31 07:39:00,
2013-01-31 02:44:00,31.5,24.5,29.58,West,278,5.0,18.0,75,0.00,,OVC029,0.00,VWS V14.01,2013-01-31 07:44:00,
2013-01-31 02:45:00,31.5,24.5,29.58,West,278,8.0,18.0,75,0.00,,,0.00,VWS V14.01,2013-01-31 07:45:00,
2013-01-31 02:49:00,31.5,24.5,29.58,West,278,5.0,18.0,75,0.00,,OVC029,0.00,VWS V14.01,2013-01-31 07:49:00,
2013-01-31 02:54:00,31.5,24.2,29.59,West,278,0.0,17.0,74,0.00,,OVC029,0.00,VWS V14.01,2013-01-31 07:54:00,
2013-01-31 02:59:00,31.3,24.0,29.59,West,278,10.0,29.0,74,0.00,,OVC029,0.00,VWS V14.01,2013-01-31 07:59:00,
2013-01-31 03:00:00,31.3,24.0,29.59,West,278,3.0,29.0,74,0.00,,,0.00,VWS V14.01,2013-01-31 08:00:00,
2013-01-31 03:04:00,31.2,23.2,29.59,West,272,5.0,29.0,72,0.00,,OVC035,0.00,VWS V14.01,2013-01-31 08:04:00,
2013-01-31 03:09:00,31.0,23.0,29.60,SSW,206,10.0,27.0,72,0.00,,OVC035,0.00,VWS V14.01,2013-01-31 08:09:00,
2013-01-31 03:14:00,30.9,23.0,29.61,West,268,27.0,27.0,72,0.00,,OVC035,0.00,VWS V14.01,2013-01-31 08:14:00,
2013-01-31 03:15:00,30.9,23.0,29.61,SW,215,22.0,27.0,72,0.00,,,0.00,VWS V14.01,2013-01-31 08:15:00,
2013-01-31 03:19:00,30.7,23.1,29.61,WSW,254,1.0,27.0,73,0.00,,OVC035,0.00,VWS V14.01,2013-01-31 08:19:00,
2013-01-31 03:24:00,30.7,23.4,29.61,WNW,298,0.0,17.0,74,0.00,,OVC035,0.00,VWS V14.01,2013-01-31 08:24:00,
2013-01-31 03:29:00,30.7,23.4,29.61,WNW,285,7.0,19.0,74,0.00,,OVC035,0.00,VWS V14.01,2013-01-31 08:29:00,
2013-01-31 03:30:00,30.7,23.4,29.61,SW,234,11.0,19.0,74,0.00,,,0.00,VWS V14.01,2013-01-31 08:30:00,
2013-01-31 03:34:00,30.7,23.1,29.61,West,272,9.0,20.0,73,0.00,,OVC031,0.00,VWS V14.01,2013-01-31 08:34:00,
2013-01-31 03:39:00,30.6,23.0,29.61,SSW,202,2.0,18.0,73,0.00,,OVC031,0.00,VWS V14.01,2013-01-31 08:39:00,
2013-01-31 03:44:00,30.4,23.1,29.62,WNW,296,10.0,18.0,74,0.00,,OVC031,0.00,VWS V14.01,2013-01-31 08:44:00,
2013-01-31 03:45:00,30.4,23.1,29.62,SW,222,7.0,18.0,74,0.00,,,0.00,VWS V14.01,2013-01-31 08:45:00,
2013-01-31 03:49:00,30.4,23.4,29.62,SW,236,4.0,13.0,75,0.00,,,0.00,VWS V14.01,2013-01-31 08:49:00,
2013-01-31 03:54:00,30.1,23.5,29.62,SW,236,6.0,20.0,76,0.00,,,0.00,VWS V14.01,2013-01-31 08:54:00,
2013-01-31 03:59:00,30.0,23.4,29.62,WSW,248,19.0,22.0,76,0.00,,,0.00,VWS V14.01,2013-01-31 08:59:00,
2013-01-31 04:00:00,30.0,23.4,29.62,WSW,256,13.0,22.0,76,0.00,,,0.00,VWS V14.01,2013-01-31 09:00:00,
2013-01-31 04:04:00,29.7,23.7,29.62,West,272,8.0,19.0,78,0.00,,,0.00,VWS V14.01,2013-01-31 09:04:00,
2013-01-31 04:09:00,29.4,23.7,29.63,WSW,244,8.0,18.0,79,0.00,,,0.00,VWS V14.01,2013-01-31 09:09:00,
2013-01-31 04:14:00,29.3,23.0,29.64,West,267,7.0,20.0,77,0.00,,,0.00,VWS V14.01,2013-01-31 09:14:00,
2013-01-31 04:15:00,29.3,23.0,29.64,WNW,282,5.0,20.0,77,0.00,,,0.00,VWS V14.01,2013-01-31 09:15:00,
2013-01-31 04:19:00,29.3,23.3,29.64,WNW,289,12.0,20.0,78,0.00,,,0.00,VWS V14.01,2013-01-31 09:19:00,
2013-01-31 04:24:00,29.1,23.1,29.64,WSW,243,17.0,24.0,78,0.00,,,0.00,VWS V14.01,2013-01-31 09:24:00,
2013-01-31 04:29:00,29.0,23.0,29.64,West,272,2.0,12.0,78,0.00,,,0.00,VWS V14.01,2013-01-31 09:29:00,
2013-01-31 04:30:00,29.0,23.0,29.64,WSW,241,7.0,12.0,78,0.00,,,0.00,VWS V14.01,2013-01-31 09:30:00,
2013-01-31 04:34:00,29.0,23.0,29.64,West,281,5.0,25.0,78,0.00,,,0.00,VWS V14.01,2013-01-31 09:34:00,
2013-01-31 04:39:00,28.8,22.2,29.65,West,271,1.0,25.0,76,0.00,,,0.00,VWS V14.01,2013-01-31 09:39:00,
2013-01-31 04:45:00,28.8,22.2,29.65,West,271,27.0,27.0,76,0.00,,,0.00,VWS V14.01,2013-01-31 09:45:00,
2013-01-31 04:50:00,28.7,22.1,29.65,SSW,196,8.0,27.0,76,0.01,,,0.01,VWS V14.01,2013-01-31 09:50:00,
2013-01-31 04:55:00,28.7,21.8,29.66,West,277,14.0,20.0,75,0.01,,,0.01,VWS V14.01,2013-01-31 09:55:00,
2013-01-31 05:00:00,28.5,21.6,29.66,WNW,282,12.0,25.0,75,0.01,,,0.01,VWS V14.01,2013-01-31 10:00:00,
2013-01-31 05:05:00,28.1,20.9,29.67,West,272,14.0,25.0,74,0.01,,,0.01,VWS V14.01,2013-01-31 10:05:00,
2013-01-31 05:10:00,28.1,20.2,29.67,WSW,256,7.0,31.0,72,0.01,,,0.01,VWS V14.01,2013-01-31 10:10:00,
2013-01-31 05:15:00,28.1,19.6,29.68,WNW,284,6.0,24.0,70,0.01,,,0.01,VWS V14.01,2013-01-31 10:15:00,
2013-01-31 05:20:00,28.1,18.9,29.68,NW,311,5.0,24.0,68,0.01,,,0.01,VWS V14.01,2013-01-31 10:20:00,
2013-01-31 05:25:00,27.9,18.7,29.68,WSW,257,10.0,20.0,68,0.01,,,0.01,VWS V14.01,2013-01-31 10:25:00,
2013-01-31 05:30:00,27.9,19.1,29.68,NW,304,5.0,27.0,69,0.01,,,0.01,VWS V14.01,2013-01-31 10:30:00,
2013-01-31 05:35:00,27.9,19.1,29.68,SW,229,5.0,20.0,69,0.01,,OVC031,0.01,VWS V14.01,2013-01-31 10:35:00,
2013-01-31 05:40:00,27.8,19.6,29.68,West,280,3.0,25.0,71,0.01,,OVC031,0.01,VWS V14.01,2013-01-31 10:40:00,
2013-01-31 05:45:00,27.6,20.1,29.69,WSW,240,8.0,20.0,73,0.01,,OVC031,0.01,VWS V14.01,2013-01-31 10:45:00,
2013-01-31 05:50:00,27.3,20.4,29.69,WSW,258,0.0,14.0,75,0.01,,OVC031,0.01,VWS V14.01,2013-01-31 10:50:00,
2013-01-31 05:55:00,27.2,20.6,29.69,West,265,2.0,13.0,76,0.01,,OVC031,0.01,VWS V14.01,2013-01-31 10:55:00,
2013-01-31 06:00:00,26.6,20.4,29.70,WSW,258,6.0,16.0,77,0.00,,OVC031,0.01,VWS V14.01,2013-01-31 11:00:00,
2013-01-31 06:05:00,26.3,20.1,29.70,WSW,241,5.0,24.0,77,0.00,,,0.01,VWS V14.01,2013-01-31 11:05:00,
2013-01-31 06:10:00,26.1,20.2,29.71,West,270,0.0,26.0,78,0.00,,,0.01,VWS V14.01,2013-01-31 11:10:00,
2013-01-31 06:15:00,25.7,20.4,29.72,WNW,291,5.0,26.0,80,0.00,,,0.01,VWS V14.01,2013-01-31 11:15:00,
2013-01-31 06:20:00,25.4,20.4,29.72,West,270,14.0,19.0,81,0.00,,,0.01,VWS V14.01,2013-01-31 11:20:00,
2013-01-31 06:25:00,25.3,20.0,29.73,SW,217,7.0,19.0,80,0.00,,,0.01,VWS V14.01,2013-01-31 11:25:00,
2013-01-31 06:30:00,25.1,19.2,29.73,WNW,295,3.0,19.0,78,0.00,,,0.01,VWS V14.01,2013-01-31 11:30:00,
2013-01-31 06:35:00,25.1,19.2,29.73,WSW,243,3.0,19.0,78,0.00,,,0.01,VWS V14.01,2013-01-31 11:35:00,
2013-01-31 06:40:00,25.0,18.8,29.73,West,265,3.0,19.0,77,0.00,,,0.01,VWS V14.01,2013-01-31 11:40:00,
2013-01-31 06:45:00,25.0,18.5,29.74,West,264,2.0,19.0,76,0.00,,,0.01,VWS V14.01,2013-01-31 11:45:00,
2013-01-31 06:50:00,25.0,18.8,29.74,SW,236,2.0,16.0,77,0.00,,,0.01,VWS V14.01,2013-01-31 11:50:00,
2013-01-31 06:55:00,25.1,18.9,29.74,WSW,246,8.0,14.0,77,0.00,,,0.01,VWS V14.01,2013-01-31 11:55:00,
2013-01-31 07:00:00,25.1,18.9,29.74,WSW,248,6.0,8.0,77,0.00,,,0.01,VWS V14.01,2013-01-31 12:00:00,
2013-01-31 07:05:00,25.3,18.5,29.75,SW,227,0.0,10.0,75,0.00,,OVC041,0.01,VWS V14.01,2013-01-31 12:05:00,
2013-01-31 07:10:00,25.3,17.9,29.75,West,261,11.0,16.0,73,0.00,,OVC041,0.01,VWS V14.01,2013-01-31 12:10:00,
2013-01-31 07:15:00,25.3,17.9,29.75,WSW,251,2.0,17.0,73,0.00,,,0.01,VWS V14.01,2013-01-31 12:15:00,
2013-01-31 07:21:00,25.3,18.2,29.75,SSW,203,2.0,16.0,74,0.00,,,0.01,VWS V14.01,2013-01-31 12:21:00,
2013-01-31 07:26:00,25.3,18.2,29.75,SW,223,1.0,12.0,74,0.00,,,0.01,VWS V14.01,2013-01-31 12:26:00,
2013-01-31 07:30:00,25.3,18.5,29.76,SSW,203,0.0,12.0,75,0.00,,,0.01,VWS V14.01,2013-01-31 12:30:00,
2013-01-31 07:31:00,25.1,18.3,29.76,SW,227,4.0,12.0,75,0.00,,,0.01,VWS V14.01,2013-01-31 12:31:00,
2013-01-31 07:36:00,25.1,18.6,29.76,WSW,243,5.0,19.0,76,0.00,,,0.01,VWS V14.01,2013-01-31 12:36:00,
2013-01-31 07:41:00,24.7,18.8,29.77,WSW,241,10.0,21.0,78,0.00,,,0.01,VWS V14.01,2013-01-31 12:41:00,
2013-01-31 07:45:00,24.1,19.1,29.77,WSW,253,14.0,26.0,81,0.00,,,0.01,VWS V14.01,2013-01-31 12:45:00,
2013-01-31 07:46:00,23.9,18.9,29.77,SSW,208,5.0,26.0,81,0.00,,,0.01,VWS V14.01,2013-01-31 12:46:00,
2013-01-31 07:51:00,23.9,18.6,29.77,West,277,1.0,26.0,80,0.00,,,0.01,VWS V14.01,2013-01-31 12:51:00,
2013-01-31 07:56:00,24.1,18.0,29.77,WNW,285,6.0,19.0,77,0.00,,,0.01,VWS V14.01,2013-01-31 12:56:00,
2013-01-31 08:00:00,24.1,16.7,29.78,WSW,239,7.0,19.0,73,0.00,,,0.01,VWS V14.01,2013-01-31 13:00:00,
2013-01-31 08:01:00,24.2,16.5,29.78,WNW,299,11.0,19.0,72,0.00,,,0.01,VWS V14.01,2013-01-31 13:01:00,
2013-01-31 08:06:00,24.4,16.0,29.78,WSW,240,10.0,22.0,70,0.00,,OVC042,0.01,VWS V14.01,2013-01-31 13:06:00,
2013-01-31 08:11:00,24.5,15.8,29.78,West,263,6.0,18.0,69,0.00,,OVC042,0.01,VWS V14.01,2013-01-31 13:11:00,
2013-01-31 08:15:00,24.5,16.5,29.79,West,271,20.0,25.0,71,0.00,,,0.01,VWS V14.01,2013-01-31 13:15:00,
2013-01-31 08:16:00,24.5,16.5,29.79,West,274,8.0,25.0,71,0.00,,OVC042,0.01,VWS V14.01,2013-01-31 13:16:00,
2013-01-31 08:21:00,24.2,16.8,29.79,West,260,6.0,22.0,73,0.00,,OVC042,0.01,VWS V14.01,2013-01-31 13:21:00,
2013-01-31 08:26:00,24.1,16.7,29.79,SW,230,16.0,19.0,73,0.00,,OVC042,0.01,VWS V14.01,2013-01-31 13:26:00,
2013-01-31 08:30:00,24.2,16.5,29.80,SSW,206,1.0,19.0,72,0.00,,,0.01,VWS V14.01,2013-01-31 13:30:00,
2013-01-31 08:31:00,24.4,16.7,29.80,West,265,1.0,18.0,72,0.00,,OVC042,0.01,VWS V14.01,2013-01-31 13:31:00,
2013-01-31 08:36:00,24.5,15.5,29.80,WNW,299,2.0,25.0,68,0.00,,OVC042,0.01,VWS V14.01,2013-01-31 13:36:00,
2013-01-31 08:41:00,24.8,15.4,29.80,WSW,256,5.0,21.0,67,0.00,,OVC042,0.01,VWS V14.01,2013-01-31 13:41:00,
2013-01-31 08:45:00,24.8,14.7,29.80,SW,229,5.0,24.0,65,0.00,,,0.01,VWS V14.01,2013-01-31 13:45:00,
2013-01-31 08:46:00,24.8,14.7,29.80,SE,145,8.0,24.0,65,0.00,,OVC042,0.01,VWS V14.01,2013-01-31 13:46:00,
2013-01-31 08:51:00,25.0,14.9,29.80,WSW,258,19.0,19.0,65,0.00,,OVC042,0.01,VWS V14.01,2013-01-31 13:51:00,
2013-01-31 08:56:00,25.0,14.6,29.81,SW,230,2.0,20.0,64,0.00,,OVC042,0.01,VWS V14.01,2013-01-31 13:56:00,
2013-01-31 09:00:00,25.0,15.3,29.81,WSW,237,2.0,14.0,66,0.00,,,0.01,VWS V14.01,2013-01-31 14:00:00,
2013-01-31 09:01:00,25.0,15.3,29.81,West,275,5.0,14.0,66,0.00,,OVC042,0.01,VWS V14.01,2013-01-31 14:01:00,
2013-01-31 09:06:00,25.1,15.7,29.82,WSW,247,1.0,13.0,67,0.00,,OVC046,0.01,VWS V14.01,2013-01-31 14:06:00,
2013-01-31 09:11:00,25.1,16.0,29.82,SW,229,3.0,16.0,68,0.00,,OVC046,0.01,VWS V14.01,2013-01-31 14:11:00,
2013-01-31 09:15:00,25.0,16.3,29.82,West,267,2.0,20.0,69,0.00,,,0.01,VWS V14.01,2013-01-31 14:15:00,
2013-01-31 09:16:00,25.1,16.4,29.82,West,281,8.0,20.0,69,0.00,,OVC046,0.01,VWS V14.01,2013-01-31 14:16:00,
2013-01-31 09:21:00,25.0,16.9,29.83,WSW,241,7.0,19.0,71,0.00,,OVC046,0.01,VWS V14.01,2013-01-31 14:21:00,
2013-01-31 09:26:00,25.0,17.9,29.83,WSW,241,4.0,19.0,74,0.00,,OVC046,0.01,VWS V14.01,2013-01-31 14:26:00,
2013-01-31 09:30:00,24.8,18.0,29.83,WSW,257,6.0,19.0,75,0.00,,,0.01,VWS V14.01,2013-01-31 14:30:00,
2013-01-31 09:31:00,24.8,18.0,29.83,WNW,295,11.0,13.0,75,0.00,,,0.01,VWS V14.01,2013-01-31 14:31:00,
2013-01-31 09:36:00,24.2,18.9,29.84,West,261,12.0,17.0,80,0.00,,,0.01,VWS V14.01,2013-01-31 14:36:00,
2013-01-31 09:41:00,23.8,19.4,29.84,WSW,239,10.0,28.0,83,0.00,,,0.01,VWS V14.01,2013-01-31 14:41:00,
2013-01-31 09:45:00,23.5,19.4,29.84,WSW,257,0.0,28.0,84,0.00,,,0.01,VWS V14.01,2013-01-31 14:45:00,
2013-01-31 09:46:00,23.3,19.5,29.84,West,280,7.0,28.0,85,0.00,,,0.01,VWS V14.01,2013-01-31 14:46:00,
2013-01-31 09:51:00,23.2,19.6,29.84,SW,234,3.0,15.0,86,0.00,,,0.01,VWS V14.01,2013-01-31 14:51:00,
2013-01-31 09:56:00,23.3,19.7,29.85,WNW,285,2.0,15.0,86,0.00,,,0.01,VWS V14.01,2013-01-31 14:56:00,
2013-01-31 10:00:00,23.3,19.7,29.85,SSW,212,11.0,18.0,86,0.01,,,0.02,VWS V14.01,2013-01-31 15:00:00,
2013-01-31 10:01:00,23.2,19.4,29.85,West,270,12.0,25.0,85,0.01,,,0.02,VWS V14.01,2013-01-31 15:01:00,
2013-01-31 10:06:00,23.0,18.9,29.86,WSW,246,5.0,25.0,84,0.01,,,0.02,VWS V14.01,2013-01-31 15:06:00,
2013-01-31 10:11:00,23.2,18.8,29.86,WNW,291,2.0,11.0,83,0.01,,,0.02,VWS V14.01,2013-01-31 15:11:00,
2013-01-31 10:15:00,23.2,18.2,29.86,West,260,7.0,20.0,81,0.01,,,0.02,VWS V14.01,2013-01-31 15:15:00,
2013-01-31 10:16:00,23.2,18.2,29.86,SSW,212,2.0,20.0,81,0.01,,,0.02,VWS V14.01,2013-01-31 15:16:00,
2013-01-31 10:21:00,23.3,18.1,29.87,SSW,213,8.0,14.0,80,0.01,,,0.02,VWS V14.01,2013-01-31 15:21:00,
2013-01-31 10:26:00,23.5,17.4,29.87,SW,229,2.0,16.0,77,0.01,,,0.02,VWS V14.01,2013-01-31 15:26:00,
2013-01-31 10:30:00,23.6,17.2,29.87,SSW,200,4.0,16.0,76,0.01,,,0.02,VWS V14.01,2013-01-31 15:30:00,
2013-01-31 10:31:00,23.8,17.0,29.87,WSW,239,6.0,16.0,75,0.01,,,0.02,VWS V14.01,2013-01-31 15:31:00,
2013-01-31 10:36:00,23.8,16.7,29.87,WNW,282,3.0,17.0,74,0.01,,,0.02,VWS V14.01,2013-01-31 15:36:00,
2013-01-31 10:42:00,23.6,16.9,29.87,West,271,7.0,19.0,75,0.01,,,0.02,VWS V14.01,2013-01-31 15:42:00,
2013-01-31 10:45:00,23.6,17.8,29.88,WSW,256,5.0,19.0,78,0.01,,,0.02,VWS V14.01,2013-01-31 15:45:00,
2013-01-31 10:47:00,23.6,17.8,29.88,West,261,4.0,14.0,78,0.01,,,0.02,VWS V14.01,2013-01-31 15:47:00,
2013-01-31 10:52:00,23.2,18.5,29.89,WNW,288,7.0,14.0,82,0.01,,,0.02,VWS V14.01,2013-01-31 15:52:00,
2013-01-31 10:56:00,22.9,18.8,29.89,SSE,147,2.0,16.0,84,0.01,,,0.02,VWS V14.01,2013-01-31 15:56:00,
2013-01-31 11:00:00,22.9,18.8,29.89,WSW,246,5.0,16.0,84,0.01,,,0.02,VWS V14.01,2013-01-31 16:00:00,
2013-01-31 11:02:00,22.9,18.8,29.89,West,260,1.0,20.0,84,0.00,,,0.02,VWS V14.01,2013-01-31 16:02:00,
2013-01-31 11:07:00,22.9,17.7,29.90,WSW,248,3.0,20.0,80,0.00,,,0.02,VWS V14.01,2013-01-31 16:07:00,
2013-01-31 11:12:00,22.7,16.3,29.91,West,274,1.0,27.0,76,0.00,,,0.02,VWS V14.01,2013-01-31 16:12:00,
2013-01-31 11:15:00,22.9,15.9,29.91,SW,224,2.0,27.0,74,0.00,,,0.02,VWS V14.01,2013-01-31 16:15:00,
2013-01-31 11:17:00,23.0,15.6,29.91,West,278,2.0,20.0,73,0.00,,,0.02,VWS V14.01,2013-01-31 16:17:00,
2013-01-31 11:22:00,23.2,15.2,29.91,WNW,282,8.0,26.0,71,0.00,,,0.02,VWS V14.01,2013-01-31 16:22:00,
2013-01-31 11:27:00,23.5,14.2,29.91,WNW,285,14.0,26.0,67,0.00,,,0.02,VWS V14.01,2013-01-31 16:27:00,
2013-01-31 11:30:00,23.6,13.6,29.91,WNW,285,10.0,24.0,65,0.00,,,0.02,VWS V14.01,2013-01-31 16:30:00,
2013-01-31 11:32:00,23.8,13.1,29.91,WNW,282,8.0,25.0,63,0.00,,OVC055,0.02,VWS V14.01,2013-01-31 16:32:00,
2013-01-31 11:37:00,24.1,12.6,29.91,SSW,208,3.0,25.0,61,0.00,,OVC055,0.02,VWS V14.01,2013-01-31 16:37:00,
2013-01-31 11:42:00,24.5,12.6,29.91,SW,224,1.0,22.0,60,0.00,,OVC055,0.02,VWS V14.01,2013-01-31 16:42:00,
2013-01-31 11:45:00,24.7,12.4,29.92,SSW,200,13.0,25.0,59,0.00,,,0.02,VWS V14.01,2013-01-31 16:45:00,
2013-01-31 11:47:00,24.7,12.4,29.92,West,265,8.0,25.0,59,0.00,,OVC055,0.02,VWS V14.01,2013-01-31 16:47:00,
2013-01-31 11:52:00,24.5,11.9,29.92,WSW,250,4.0,24.0,58,0.00,,OVC055,0.02,VWS V14.01,2013-01-31 16:52:00,
2013-01-31 11:57:00,24.2,11.6,29.92,NW,316,7.0,21.0,58,0.00,,OVC055,0.02,VWS V14.01,2013-01-31 16:57:00,
2013-01-31 12:00:00,24.2,11.9,29.92,WSW,241,9.0,21.0,59,0.00,,,0.02,VWS V14.01,2013-01-31 17:00:00,
2013-01-31 12:02:00,24.2,11.9,29.92,SW,217,16.0,26.0,59,0.00,,OVC050,0.02,VWS V14.01,2013-01-31 17:02:00,
2013-01-31 12:07:00,24.4,11.8,29.91,West,261,0.0,26.0,58,0.00,,OVC050,0.02,VWS V14.01,2013-01-31 17:07:00,
2013-01-31 12:12:00,24.8,11.7,29.91,WNW,298,6.0,27.0,57,0.00,,OVC050,0.02,VWS V14.01,2013-01-31 17:12:00,
2013-01-31 12:15:00,24.8,11.3,29.91,NW,316,12.0,27.0,56,0.00,,,0.02,VWS V14.01,2013-01-31 17:15:00,
2013-01-31 12:17:00,24.8,12.1,29.91,West,263,9.0,27.0,58,0.00,,OVC050,0.02,VWS V14.01,2013-01-31 17:17:00,
2013-01-31 12:22:00,25.1,13.6,29.91,WSW,250,2.0,22.0,61,0.00,,OVC050,0.02,VWS V14.01,2013-01-31 17:22:00,
2013-01-31 12:27:00,25.4,13.8,29.91,West,271,6.0,14.0,61,0.00,,OVC050,0.02,VWS V14.01,2013-01-31 17:27:00,
2013-01-31 12:30:00,25.4,13.8,29.91,SW,236,2.0,21.0,61,0.00,,,0.02,VWS V14.01,2013-01-31 17:30:00,
2013-01-31 12:32:00,25.3,14.1,29.91,SW,233,2.0,21.0,62,0.00,,OVC050,0.02,VWS V14.01,2013-01-31 17:32:00,
2013-01-31 12:37:00,25.0,13.8,29.91,SSW,193,1.0,20.0,62,0.00,,OVC050,0.02,VWS V14.01,2013-01-31 17:37:00,
2013-01-31 12:42:00,25.1,13.6,29.91,WSW,246,2.0,13.0,61,0.00,,OVC050,0.02,VWS V14.01,2013-01-31 17:42:00,
2013-01-31 12:45:00,25.0,13.5,29.91,West,265,7.0,22.0,61,0.00,,,0.02,VWS V14.01,2013-01-31 17:45:00,
2013-01-31 12:47:00,24.8,13.3,29.91,WNW,287,8.0,25.0,61,0.00,,OVC050,0.02,VWS V14.01,2013-01-31 17:47:00,
2013-01-31 12:52:00,24.8,13.6,29.91,West,275,2.0,25.0,62,0.00,,OVC050,0.02,VWS V14.01,2013-01-31 17:52:00,
2013-01-31 12:57:00,25.4,14.2,29.90,SSW,200,1.0,14.0,62,0.00,,OVC050,0.02,VWS V14.01,2013-01-31 17:57:00,
2013-01-31 13:00:00,25.6,15.1,29.90,West,281,17.0,21.0,64,0.00,,,0.02,VWS V14.01,2013-01-31 18:00:00,
2013-01-31 13:02:00,25.6,14.4,29.90,WNW,299,3.0,21.0,62,0.00,,OVC045,0.02,VWS V14.01,2013-01-31 18:02:00,
2013-01-31 13:07:00,26.0,15.1,29.90,SSW,205,11.0,17.0,63,0.00,,OVC045,0.02,VWS V14.01,2013-01-31 18:07:00,
2013-01-31 13:12:00,26.1,15.2,29.90,West,268,3.0,13.0,63,0.00,,OVC045,0.02,VWS V14.01,2013-01-31 18:12:00,
2013-01-31 13:15:00,26.0,15.1,29.90,SW,217,7.0,19.0,63,0.00,,,0.02,VWS V14.01,2013-01-31 18:15:00,
2013-01-31 13:17:00,26.0,15.5,29.90,SW,223,5.0,19.0,64,0.00,,OVC045,0.02,VWS V14.01,2013-01-31 18:17:00,
2013-01-31 13:22:00,25.6,15.8,29.91,SSW,213,2.0,17.0,66,0.00,,OVC045,0.02,VWS V14.01,2013-01-31 18:22:00,
2013-01-31 13:27:00,25.4,16.7,29.91,West,263,6.0,20.0,69,0.00,,OVC045,0.02,VWS V14.01,2013-01-31 18:27:00,
2013-01-31 13:30:00,25.6,17.2,29.91,SW,223,0.0,20.0,70,0.00,,,0.02,VWS V14.01,2013-01-31 18:30:00,
2013-01-31 13:32:00,25.4,18.0,29.91,SSW,208,4.0,20.0,73,0.00,,,0.02,VWS V14.01,2013-01-31 18:32:00,
2013-01-31 13:37:00,25.3,18.5,29.90,West,275,8.0,17.0,75,0.00,,,0.02,VWS V14.01,2013-01-31 18:37:00,
2013-01-31 13:43:00,25.4,17.3,29.90,West,270,11.0,19.0,71,0.00,,,0.02,VWS V14.01,2013-01-31 18:43:00,
2013-01-31 13:45:00,25.4,16.3,29.90,West,280,6.0,19.0,68,0.00,,,0.02,VWS V14.01,2013-01-31 18:45:00,
2013-01-31 13:48:00,25.6,16.9,29.90,WSW,247,7.0,19.0,69,0.00,,,0.02,VWS V14.01,2013-01-31 18:48:00,
2013-01-31 13:53:00,25.8,16.7,29.90,WSW,251,5.0,22.0,68,0.00,,,0.02,VWS V14.01,2013-01-31 18:53:00,
2013-01-31 13:58:00,26.1,16.7,29.90,WSW,254,3.0,22.0,67,0.00,,,0.02,VWS V14.01,2013-01-31 18:58:00,
2013-01-31 14:00:00,26.3,16.5,29.90,WNW,291,3.0,21.0,66,0.00,,,0.02,VWS V14.01,2013-01-31 19:00:00,
2013-01-31 14:03:00,26.4,16.6,29.90,WSW,247,1.0,14.0,66,0.00,,,0.02,VWS V14.01,2013-01-31 19:03:00,
2013-01-31 14:08:00,26.9,16.4,29.90,WSW,244,6.0,16.0,64,0.00,,,0.02,VWS V14.01,2013-01-31 19:08:00,
2013-01-31 14:13:00,27.0,15.4,29.90,WSW,240,6.0,21.0,61,0.00,,,0.02,VWS V14.01,2013-01-31 19:13:00,
2013-01-31 14:15:00,27.0,15.0,29.90,WSW,253,6.0,21.0,60,0.00,,,0.02,VWS V14.01,2013-01-31 19:15:00,
2013-01-31 14:18:00,27.0,15.4,29.90,South,172,1.0,18.0,61,0.00,,,0.02,VWS V14.01,2013-01-31 19:18:00,
2013-01-31 14:23:00,27.5,16.2,29.90,SW,230,2.0,18.0,62,0.00,,,0.02,VWS V14.01,2013-01-31 19:23:00,
2013-01-31 14:28:00,27.6,15.6,29.90,SW,217,4.0,20.0,60,0.00,,,0.02,VWS V14.01,2013-01-31 19:28:00,
2013-01-31 14:30:00,27.8,16.1,29.90,WSW,243,2.0,20.0,61,0.00,,,0.02,VWS V14.01,2013-01-31 19:30:00,
2013-01-31 14:33:00,27.8,15.4,29.90,SSW,208,13.0,26.0,59,0.00,,,0.02,VWS V14.01,2013-01-31 19:33:00,
2013-01-31 14:38:00,27.6,15.2,29.90,SSW,203,2.0,26.0,59,0.00,,,0.02,VWS V14.01,2013-01-31 19:38:00,
2013-01-31 14:43:00,27.6,15.2,29.90,SW,229,6.0,21.0,59,0.00,,,0.02,VWS V14.01,2013-01-31 19:43:00,
2013-01-31 14:45:00,27.5,15.1,29.90,SW,234,7.0,22.0,59,0.00,,,0.02,VWS V14.01,2013-01-31 19:45:00,
2013-01-31 14:48:00,27.6,14.8,29.90,SW,215,3.0,22.0,58,0.00,,,0.02,VWS V14.01,2013-01-31 19:48:00,
2013-01-31 14:53:00,27.9,15.1,29.90,West,275,22.0,22.0,58,0.00,,,0.02,VWS V14.01,2013-01-31 19:53:00,
2013-01-31 14:58:00,27.8,14.6,29.90,SW,217,3.0,22.0,57,0.00,,,0.02,VWS V14.01,2013-01-31 19:58:00,
2013-01-31 15:00:00,27.8,14.6,29.90,WSW,239,7.0,26.0,57,0.00,,,0.02,VWS V14.01,2013-01-31 20:00:00,
2013-01-31 15:03:00,27.6,14.0,29.90,West,277,4.0,26.0,56,0.00,,OVC070,0.02,VWS V14.01,2013-01-31 20:03:00,
2013-01-31 15:08:00,27.8,15.0,29.90,SW,219,10.0,26.0,58,0.00,,OVC070,0.02,VWS V14.01,2013-01-31 20:08:00,
2013-01-31 15:13:00,27.9,15.8,29.90,SW,220,5.0,25.0,60,0.00,,OVC070,0.02,VWS V14.01,2013-01-31 20:13:00,
2013-01-31 15:15:00,28.1,16.4,29.90,SW,219,7.0,20.0,61,0.00,,,0.02,VWS V14.01,2013-01-31 20:15:00,
2013-01-31 15:18:00,28.2,16.1,29.90,SW,216,7.0,18.0,60,0.00,,OVC070,0.02,VWS V14.01,2013-01-31 20:18:00,
2013-01-31 15:23:00,28.1,15.6,29.90,WSW,240,9.0,21.0,59,0.00,,OVC070,0.02,VWS V14.01,2013-01-31 20:23:00,
2013-01-31 15:28:00,28.2,15.7,29.90,West,264,1.0,21.0,59,0.00,,OVC070,0.02,VWS V14.01,2013-01-31 20:28:00,
2013-01-31 15:30:00,28.2,15.7,29.90,South,191,10.0,21.0,59,0.00,,,0.02,VWS V14.01,2013-01-31 20:30:00,
2013-01-31 15:33:00,28.2,14.5,29.90,SW,222,7.0,22.0,56,0.00,,OVC070,0.02,VWS V14.01,2013-01-31 20:33:00,
2013-01-31 15:38:00,28.4,14.7,29.90,SW,219,10.0,25.0,56,0.00,,OVC070,0.02,VWS V14.01,2013-01-31 20:38:00,
2013-01-31 15:43:00,28.4,14.7,29.90,SW,217,6.0,25.0,56,0.00,,OVC070,0.02,VWS V14.01,2013-01-31 20:43:00,
2013-01-31 15:45:00,28.4,14.3,29.90,WSW,243,14.0,25.0,55,0.00,,,0.02,VWS V14.01,2013-01-31 20:45:00,
2013-01-31 15:48:00,28.5,15.2,29.90,SW,229,5.0,17.0,57,0.00,,OVC070,0.02,VWS V14.01,2013-01-31 20:48:00,
2013-01-31 15:53:00,28.5,15.2,29.90,West,277,7.0,20.0,57,0.00,,OVC070,0.02,VWS V14.01,2013-01-31 20:53:00,
2013-01-31 15:58:00,28.4,15.5,29.91,West,270,17.0,21.0,58,0.00,,OVC070,0.02,VWS V14.01,2013-01-31 20:58:00,
2013-01-31 16:00:00,28.4,15.5,29.90,SW,224,6.0,21.0,58,0.00,,,0.02,VWS V14.01,2013-01-31 21:00:00,
2013-01-31 16:03:00,28.4,15.5,29.90,WSW,258,6.0,19.0,58,0.00,,OVC075,0.02,VWS V14.01,2013-01-31 21:03:00,
2013-01-31 16:08:00,28.4,14.7,29.91,WSW,237,5.0,27.0,56,0.00,,OVC075,0.02,VWS V14.01,2013-01-31 21:08:00,
2013-01-31 16:13:00,28.1,15.2,29.91,South,191,11.0,27.0,58,0.00,,OVC075,0.02,VWS V14.01,2013-01-31 21:13:00,
2013-01-31 16:15:00,28.1,15.6,29.91,WSW,237,10.0,25.0,59,0.00,,,0.02,VWS V14.01,2013-01-31 21:15:00,
2013-01-31 16:18:00,28.1,16.0,29.91,SSE,164,3.0,25.0,60,0.00,,OVC075,0.02,VWS V14.01,2013-01-31 21:18:00,
2013-01-31 16:23:00,27.6,17.0,29.92,WSW,240,1.0,22.0,64,0.00,,OVC075,0.02,VWS V14.01,2013-01-31 21:23:00,
2013-01-31 16:28:00,27.6,17.7,29.92,SSW,205,2.0,17.0,66,0.00,,OVC075,0.02,VWS V14.01,2013-01-31 21:28:00,
2013-01-31 16:30:00,27.8,17.9,29.92,SW,233,5.0,17.0,66,0.00,,,0.02,VWS V14.01,2013-01-31 21:30:00,
2013-01-31 16:33:00,28.1,18.2,29.92,SW,217,7.0,17.0,66,0.00,,OVC075,0.02,VWS V14.01,2013-01-31 21:33:00,
2013-01-31 16:38:00,27.8,17.9,29.92,WSW,248,10.0,20.0,66,0.00,,OVC075,0.02,VWS V14.01,2013-01-31 21:38:00,
2013-01-31 16:43:00,27.9,17.3,29.92,SW,219,3.0,18.0,64,0.00,,OVC075,0.02,VWS V14.01,2013-01-31 21:43:00,
2013-01-31 16:45:00,27.9,17.3,29.92,SSW,192,6.0,18.0,64,0.00,,,0.02,VWS V14.01,2013-01-31 21:45:00,
2013-01-31 16:48:00,27.6,16.3,29.92,WSW,246,4.0,14.0,62,0.00,,OVC075,0.02,VWS V14.01,2013-01-31 21:48:00,
2013-01-31 16:53:00,27.3,16.4,29.91,SW,232,5.0,18.0,63,0.00,,OVC075,0.02,VWS V14.01,2013-01-31 21:53:00,
2013-01-31 16:58:00,27.3,16.4,29.91,SW,219,2.0,18.0,63,0.00,,OVC075,0.02,VWS V14.01,2013-01-31 21:58:00,
2013-01-31 17:00:00,27.3,16.4,29.91,WSW,237,6.0,18.0,63,0.00,,,0.02,VWS V14.01,2013-01-31 22:00:00,
2013-01-31 17:03:00,27.3,16.0,29.91,WSW,239,2.0,8.0,62,0.00,,BKN070,0.02,VWS V14.01,2013-01-31 22:03:00,
2013-01-31 17:08:00,27.3,16.0,29.92,WSW,250,5.0,8.0,62,0.00,,BKN070,0.02,VWS V14.01,2013-01-31 22:08:00,
2013-01-31 17:13:00,27.5,15.8,29.92,West,260,4.0,12.0,61,0.00,,BKN070,0.02,VWS V14.01,2013-01-31 22:13:00,
2013-01-31 17:15:00,27.5,15.4,29.91,SW,219,1.0,15.0,60,0.00,,,0.02,VWS V14.01,2013-01-31 22:15:00,
2013-01-31 17:18:00,27.6,15.2,29.91,West,264,2.0,15.0,59,0.00,,BKN070,0.02,VWS V14.01,2013-01-31 22:18:00,
2013-01-31 17:23:00,27.9,14.6,29.91,WSW,244,12.0,20.0,57,0.00,,BKN070,0.02,VWS V14.01,2013-01-31 22:23:00,
2013-01-31 17:28:00,27.9,14.6,29.91,WSW,243,5.0,14.0,57,0.00,,BKN070,0.02,VWS V14.01,2013-01-31 22:28:00,
2013-01-31 17:30:00,27.9,15.1,29.91,SW,236,2.0,14.0,58,0.00,,,0.02,VWS V14.01,2013-01-31 22:30:00,
2013-01-31 17:33:00,27.9,14.6,29.91,SW,234,18.0,18.0,57,0.00,,BKN070,0.02,VWS V14.01,2013-01-31 22:33:00,
2013-01-31 17:38:00,27.8,14.2,29.91,SW,233,1.0,18.0,56,0.00,,BKN070,0.02,VWS V14.01,2013-01-31 22:38:00,
2013-01-31 17:43:00,27.6,14.4,29.91,SW,219,0.0,19.0,57,0.00,,BKN070,0.02,VWS V14.01,2013-01-31 22:43:00,
2013-01-31 17:45:00,27.6,14.4,29.91,WSW,243,2.0,19.0,57,0.00,,,0.02,VWS V14.01,2013-01-31 22:45:00,
2013-01-31 17:48:00,27.5,14.3,29.91,WNW,282,6.0,10.0,57,0.00,,BKN070,0.02,VWS V14.01,2013-01-31 22:48:00,
2013-01-31 17:53:00,27.5,14.3,29.91,SSW,213,6.0,12.0,57,0.00,,BKN070,0.02,VWS V14.01,2013-01-31 22:53:00,
2013-01-31 17:59:00,27.5,14.3,29.91,SSW,212,5.0,12.0,57,0.00,,BKN070,0.02,VWS V14.01,2013-01-31 22:59:00,
2013-01-31 18:00:00,27.5,14.3,29.91,SE,141,1.0,12.0,57,0.00,,,0.02,VWS V14.01,2013-01-31 23:00:00,
2013-01-31 18:04:00,27.5,14.3,29.91,WSW,248,3.0,13.0,57,0.00,,BKN070,0.02,VWS V14.01,2013-01-31 23:04:00,
2013-01-31 18:09:00,27.6,14.8,29.92,SSW,209,2.0,10.0,58,0.00,,BKN070,0.02,VWS V14.01,2013-01-31 23:09:00,
2013-01-31 18:14:00,27.5,15.1,29.92,SW,224,1.0,13.0,59,0.00,,BKN070,0.02,VWS V14.01,2013-01-31 23:14:00,
2013-01-31 18:15:00,27.5,15.4,29.92,WSW,244,10.0,13.0,60,0.00,,,0.02,VWS V14.01,2013-01-31 23:15:00,
2013-01-31 18:19:00,27.3,15.3,29.92,WSW,237,7.0,12.0,60,0.00,,BKN070,0.02,VWS V14.01,2013-01-31 23:19:00,
2013-01-31 18:24:00,27.2,15.6,29.91,SW,219,3.0,8.0,61,0.00,,BKN070,0.02,VWS V14.01,2013-01-31 23:24:00,
2013-01-31 18:29:00,27.0,15.4,29.90,WSW,240,0.0,10.0,61,0.00,,BKN070,0.02,VWS V14.01,2013-01-31 23:29:00,
2013-01-31 18:30:00,27.0,15.7,29.90,WSW,239,1.0,10.0,62,0.00,,,0.02,VWS V14.01,2013-01-31 23:30:00,
2013-01-31 18:34:00,27.0,15.7,29.90,West,278,11.0,12.0,62,0.00,,BKN070,0.02,VWS V14.01,2013-01-31 23:34:00,
2013-01-31 18:39:00,27.0,16.1,29.92,SW,216,6.0,12.0,63,0.00,,BKN070,0.02,VWS V14.01,2013-01-31 23:39:00,
2013-01-31 18:44:00,27.0,16.1,29.92,SSW,209,2.0,7.0,63,0.00,,BKN070,0.02,VWS V14.01,2013-01-31 23:44:00,
2013-01-31 18:45:00,27.0,16.1,29.92,WSW,239,4.0,7.0,63,0.00,,,0.02,VWS V14.01,2013-01-31 23:45:00,
2013-01-31 18:49:00,27.0,16.1,29.92,SW,230,2.0,8.0,63,0.00,,BKN070,0.02,VWS V14.01,2013-01-31 23:49:00,
2013-01-31 18:54:00,27.0,16.5,29.92,West,260,5.0,6.0,64,0.00,,BKN070,0.02,VWS V14.01,2013-01-31 23:54:00,
2013-01-31 18:59:00,27.2,16.6,29.93,SW,224,1.0,5.0,64,0.00,,BKN070,0.02,VWS V14.01,2013-01-31 23:59:00,
2013-01-31 19:00:00,27.2,16.6,29.93,West,281,2.0,5.0,64,0.00,,,0.02,VWS V14.01,2013-02-01 00:00:00,
2013-01-31 19:04:00,27.2,16.6,29.93,WSW,248,1.0,4.0,64,0.00,,OVC060,0.02,VWS V14.01,2013-02-01 00:04:00,
2013-01-31 19:09:00,27.2,16.6,29.92,WNW,282,1.0,6.0,64,0.00,,OVC060,0.02,VWS V14.01,2013-02-01 00:09:00,
2013-01-31 19:14:00,27.2,18.4,29.94,West,274,2.0,8.0,69,0.00,,OVC060,0.02,VWS V14.01,2013-02-01 00:14:00,
2013-01-31 19:15:00,27.2,18.7,29.94,WNW,299,3.0,8.0,70,0.00,,,0.02,VWS V14.01,2013-02-01 00:15:00,
2013-01-31 19:19:00,26.9,19.1,29.94,West,260,1.0,11.0,72,0.00,,OVC060,0.02,VWS V14.01,2013-02-01 00:19:00,
2013-01-31 19:24:00,26.7,19.5,29.94,WNW,295,0.0,11.0,74,0.00,,OVC060,0.02,VWS V14.01,2013-02-01 00:24:00,
2013-01-31 19:29:00,26.6,19.8,29.94,NW,315,0.0,8.0,75,0.00,,OVC060,0.02,VWS V14.01,2013-02-01 00:29:00,
2013-01-31 19:30:00,26.6,20.1,29.94,NW,315,0.0,8.0,76,0.00,,,0.02,VWS V14.01,2013-02-01 00:30:00,
2013-01-31 19:34:00,26.4,20.5,29.94,WSW,256,3.0,8.0,78,0.00,,,0.02,VWS V14.01,2013-02-01 00:34:00,
2013-01-31 19:39:00,26.0,21.0,29.94,West,267,1.0,7.0,81,0.00,,,0.02,VWS V14.01,2013-02-01 00:39:00,
2013-01-31 19:44:00,25.8,21.1,29.94,West,271,0.0,7.0,82,0.00,,,0.02,VWS V14.01,2013-02-01 00:44:00,
2013-01-31 19:45:00,25.8,21.4,29.94,West,270,0.0,6.0,83,0.00,,,0.02,VWS V14.01,2013-02-01 00:45:00,
2013-01-31 19:49:00,25.6,21.5,29.94,NW,305,2.0,6.0,84,0.00,,,0.02,VWS V14.01,2013-02-01 00:49:00,
2013-01-31 19:55:00,25.6,21.5,29.94,WSW,246,0.0,6.0,84,0.01,,,0.03,VWS V14.01,2013-02-01 00:55:00,
2013-01-31 20:00:00,25.6,21.7,29.94,WSW,243,0.0,2.0,85,0.01,,,0.03,VWS V14.01,2013-02-01 01:00:00,
2013-01-31 20:05:00,25.3,21.4,29.93,West,263,0.0,3.0,85,0.01,,,0.03,VWS V14.01,2013-02-01 01:05:00,
2013-01-31 20:10:00,25.1,21.2,29.93,West,261,0.0,1.0,85,0.01,,,0.03,VWS V14.01,2013-02-01 01:10:00,
2013-01-31 20:15:00,25.0,21.1,29.94,WNW,288,1.0,5.0,85,0.01,,OVC100,0.04,VWS V14.01,2013-02-01 01:15:00,
2013-01-31 20:22:00,25.0,21.1,29.93,West,261,0.0,0.0,85,0.00,,,0.03,VWS V14.01,2013-02-01 01:22:00,
2013-01-31 20:27:00,25.0,21.1,29.94,WSW,257,0.0,2.0,85,0.01,,,0.03,VWS V14.01,2013-02-01 01:27:00,
2013-01-31 20:30:00,25.0,21.1,29.94,West,278,0.0,5.0,85,0.01,,OVC100,0.04,VWS V14.01,2013-02-01 01:30:00,
2013-01-31 20:32:00,25.1,21.2,29.94,WNW,285,1.0,6.0,85,0.01,,,0.03,VWS V14.01,2013-02-01 01:32:00,
2013-01-31 20:37:00,25.3,21.4,29.94,WNW,287,0.0,6.0,85,0.01,,,0.03,VWS V14.01,2013-02-01 01:37:00,
2013-01-31 20:42:00,25.3,21.7,29.94,WSW,257,0.0,2.0,86,0.02,,,0.04,VWS V14.01,2013-02-01 01:42:00,
2013-01-31 20:45:00,23.9,20.3,29.95,North,353,1.0,6.0,86,0.02,,OVC100,0.05,VWS V14.01,2013-02-01 01:45:00,
2013-01-31 20:47:00,25.1,21.2,29.94,WNW,294,0.0,6.0,85,0.02,,,0.04,VWS V14.01,2013-02-01 01:47:00,
2013-01-31 20:52:00,25.0,21.4,29.94,WNW,302,0.0,6.0,86,0.02,,,0.04,VWS V14.01,2013-02-01 01:52:00,
2013-01-31 20:57:00,25.0,21.1,29.93,West,275,2.0,2.0,85,0.02,,,0.04,VWS V14.01,2013-02-01 01:57:00,
2013-01-31 21:00:00,22.5,19.2,29.94,NW,315,0.0,12.0,87,0.01,,OVC100,0.05,VWS V14.01,2013-02-01 02:00:00,
2013-01-31 21:02:00,25.0,21.1,29.94,West,280,0.0,2.0,85,0.01,,OVC095,0.04,VWS V14.01,2013-02-01 02:02:00,
2013-01-31 21:07:00,25.0,21.1,29.94,West,264,0.0,5.0,85,0.01,,OVC095,0.04,VWS V14.01,2013-02-01 02:07:00,
2013-01-31 21:12:00,25.0,21.1,29.94,WNW,282,1.0,5.0,85,0.01,,OVC095,0.04,VWS V14.01,2013-02-01 02:12:00,
2013-01-31 21:15:00,22.1,19.1,29.94,WNW,302,1.0,10.0,88,0.01,,OVC100,0.05,VWS V14.01,2013-02-01 02:15:00,
2013-01-31 21:17:00,25.1,21.0,29.94,WNW,298,1.0,5.0,84,0.01,,OVC095,0.04,VWS V14.01,2013-02-01 02:17:00,
2013-01-31 21:22:00,25.1,21.0,29.94,West,280,1.0,2.0,84,0.01,,OVC095,0.04,VWS V14.01,2013-02-01 02:22:00,
2013-01-31 21:27:00,25.1,21.2,29.94,NW,322,1.0,2.0,85,0.01,,OVC095,0.04,VWS V14.01,2013-02-01 02:27:00,
2013-01-31 21:30:00,21.6,18.3,29.94,WNW,302,0.0,4.0,87,0.02,,OVC100,0.06,VWS V14.01,2013-02-01 02:30:00,
2013-01-31 21:32:00,24.8,20.9,29.94,NW,326,1.0,9.0,85,0.01,,,0.04,VWS V14.01,2013-02-01 02:32:00,
2013-01-31 21:37:00,24.4,20.5,29.95,WNW,284,1.0,9.0,85,0.01,,,0.04,VWS V14.01,2013-02-01 02:37:00,
2013-01-31 21:42:00,23.9,20.3,29.95,NW,315,1.0,6.0,86,0.01,,,0.04,VWS V14.01,2013-02-01 02:42:00,
2013-01-31 21:45:00,21.6,18.1,29.94,NNW,346,1.0,5.0,86,0.02,,OVC100,0.06,VWS V14.01,2013-02-01 02:45:00,
2013-01-31 21:47:00,23.8,20.2,29.95,NNW,340,0.0,6.0,86,0.01,,,0.05,VWS V14.01,2013-02-01 02:47:00,
2013-01-31 21:52:00,23.2,19.6,29.95,NNW,340,2.0,12.0,86,0.01,,,0.05,VWS V14.01,2013-02-01 02:52:00,
2013-01-31 21:57:00,22.7,19.4,29.95,NW,316,0.0,12.0,87,0.01,,,0.05,VWS V14.01,2013-02-01 02:57:00,
2013-01-31 22:00:00,21.6,18.1,29.94,NW,304,0.0,6.0,86,0.01,,OVC100,0.06,VWS V14.01,2013-02-01 03:00:00,
2013-01-31 22:03:00,22.5,19.5,29.94,NNW,335,0.0,9.0,88,0.01,,,0.05,VWS V14.01,2013-02-01 03:03:00,
2013-01-31 22:08:00,22.4,19.4,29.95,NNW,340,2.0,10.0,88,0.01,,,0.05,VWS V14.01,2013-02-01 03:08:00,
2013-01-31 22:13:00,22.1,19.1,29.94,West,274,1.0,10.0,88,0.01,,,0.05,VWS V14.01,2013-02-01 03:13:00,
2013-01-31 22:15:00,21.6,17.8,29.95,NW,322,1.0,3.0,85,0.01,,OVC100,0.06,VWS V14.01,2013-02-01 03:15:00,
2013-01-31 22:18:00,21.9,18.9,29.94,WNW,301,3.0,7.0,88,0.01,,,0.05,VWS V14.01,2013-02-01 03:18:00,
2013-01-31 22:23:00,21.8,18.5,29.93,WNW,299,0.0,7.0,87,0.01,,,0.05,VWS V14.01,2013-02-01 03:23:00,
2013-01-31 22:28:00,21.6,18.3,29.94,NW,319,0.0,4.0,87,0.02,,,0.06,VWS V14.01,2013-02-01 03:28:00,
2013-01-31 22:30:00,21.6,17.8,29.96,WNW,287,2.0,5.0,85,0.01,,OVC100,0.06,VWS V14.01,2013-02-01 03:30:00,
2013-01-31 22:33:00,21.8,18.5,29.94,NNW,347,4.0,5.0,87,0.02,,,0.06,VWS V14.01,2013-02-01 03:33:00,
2013-01-31 22:38:00,21.8,18.3,29.94,NW,319,0.0,5.0,86,0.02,,,0.06,VWS V14.01,2013-02-01 03:38:00,
2013-01-31 22:43:00,21.6,18.1,29.94,NW,319,1.0,5.0,86,0.02,,,0.06,VWS V14.01,2013-02-01 03:43:00,
2013-01-31 22:45:00,20.6,16.3,29.96,WNW,298,5.0,7.0,83,0.00,,OVC100,0.06,VWS V14.01,2013-02-01 03:45:00,
2013-01-31 22:48:00,21.6,18.1,29.94,WNW,299,0.0,5.0,86,0.01,,OVC120,0.06,VWS V14.01,2013-02-01 03:48:00,
2013-01-31 22:53:00,21.6,18.1,29.94,NW,318,0.0,5.0,86,0.01,,OVC120,0.06,VWS V14.01,2013-02-01 03:53:00,
2013-01-31 22:58:00,21.6,18.1,29.94,NW,323,0.0,6.0,86,0.01,,OVC120,0.06,VWS V14.01,2013-02-01 03:58:00,
2013-01-31 23:00:00,20.2,16.1,29.96,WNW,294,1.0,12.0,84,0.00,,OVC100,0.06,VWS V14.01,2013-02-01 04:00:00,
2013-01-31 23:03:00,21.6,18.1,29.94,WNW,295,0.0,2.0,86,0.01,,OVC070,0.06,VWS V14.01,2013-02-01 04:03:00,
2013-01-31 23:08:00,21.8,18.3,29.94,WNW,288,0.0,6.0,86,0.01,,OVC070,0.06,VWS V14.01,2013-02-01 04:08:00,
2013-01-31 23:13:00,21.6,17.8,29.94,WNW,299,1.0,3.0,85,0.01,,OVC070,0.06,VWS V14.01,2013-02-01 04:13:00,
2013-01-31 23:15:00,19.2,15.4,29.98,WSW,253,0.0,22.0,85,0.00,,OVC100,0.00,VWS V14.01,2013-02-01 04:15:00,
2013-01-31 23:18:00,21.6,17.8,29.95,NNW,330,1.0,5.0,85,0.01,,OVC070,0.06,VWS V14.01,2013-02-01 04:18:00,
2013-01-31 23:23:00,21.6,17.8,29.95,NNW,330,0.0,5.0,85,0.01,,OVC070,0.06,VWS V14.01,2013-02-01 04:23:00,
2013-01-31 23:28:00,21.6,17.8,29.95,West,265,1.0,4.0,85,0.01,,OVC070,0.06,VWS V14.01,2013-02-01 04:28:00,
2013-01-31 23:30:00,18.3,14.3,29.99,NNW,335,6.0,18.0,84,0.00,,OVC100,0.00,VWS V14.01,2013-02-01 04:30:00,
2013-01-31 23:33:00,21.3,17.2,29.96,NW,319,0.0,7.0,84,0.00,,,0.06,VWS V14.01,2013-02-01 04:33:00,
2013-01-31 23:38:00,21.0,16.9,29.96,WNW,301,6.0,11.0,84,0.00,,,0.06,VWS V14.01,2013-02-01 04:38:00,
2013-01-31 23:43:00,20.8,16.5,29.96,WNW,302,2.0,7.0,83,0.00,,,0.06,VWS V14.01,2013-02-01 04:43:00,
2013-01-31 23:45:00,18.0,14.3,29.99,West,267,4.0,14.0,85,0.00,,OVC100,0.00,VWS V14.01,2013-02-01 04:45:00,
2013-01-31 23:48:00,20.6,16.3,29.96,WNW,282,7.0,7.0,83,0.00,,,0.06,VWS V14.01,2013-02-01 04:48:00,
2013-01-31 23:53:00,20.3,16.2,29.96,WNW,284,7.0,7.0,84,0.00,,,0.06,VWS V14.01,2013-02-01 04:53:00,
2013-01-31 23:58:00,20.2,16.1,29.96,West,261,5.0,12.0,84,0.00,,,0.06,VWS V14.01,2013-02-01 04:58:00,